When you browse on this site, cookies collect data to enhance your experience and personalize the content and advertising you see.
Visit our Privacy Policy to learn more. By continuing to use the site, you agree to this use of cookies and data.
  • In Österreich
  • Länderverzeichnis
  • Für 7 Tage
  • Wassertemperatur
  • Wetterkarte
  • News
  • Widgets
  • user-avatar
    Anmelden

    Stündliche Wetter Suesca

    Heute, 23 September, Montag

    Zeit Temperatur Niederschläge Wind Luftdruck Luftfeuchtigkeit
    00:00 +10°C° 0 mm 1 m/S 553 mmHg 96%
    01:00 +10°C° 0 mm 1 m/S 553 mmHg 96%
    02:00 +10°C° 0 mm 1 m/S 553 mmHg 95%
    03:00 +9°C° 0 mm 1 m/S 553 mmHg 95%
    04:00 +9°C° 0 mm 1 m/S 553 mmHg 94%
    05:00 +10°C° 0 mm 1 m/S 553 mmHg 91%
    06:00 +11°C° 0 mm 1 m/S 554 mmHg 89%
    07:00 +11°C° 0 mm 0 m/S 555 mmHg 85%
    08:00 +14°C° 0 mm 1 m/S 557 mmHg 76%
    09:00 +16°C° 0 mm 1 m/S 558 mmHg 66%
    10:00 +20°C° 0 mm 1 m/S 559 mmHg 56%
    11:00 +19°C° 0.2 mm 2 m/S 558 mmHg 59%
    12:00 +19°C° 0.2 mm 2 m/S 557 mmHg 62%
    13:00 +19°C° 0.2 mm 2 m/S 556 mmHg 64%
    14:00 +18°C° 0.6 mm 2 m/S 556 mmHg 70%
    15:00 +17°C° 0.6 mm 2 m/S 555 mmHg 76%
    16:00 +16°C° 0.6 mm 2 m/S 554 mmHg 82%
    17:00 +15°C° 0.9 mm 2 m/S 554 mmHg 87%
    18:00 +14°C° 0.9 mm 1 m/S 553 mmHg 91%
    19:00 +13°C° 0.9 mm 1 m/S 553 mmHg 96%
    20:00 +12°C° 0.3 mm 1 m/S 553 mmHg 96%
    21:00 +12°C° 0.3 mm 1 m/S 554 mmHg 96%
    22:00 +11°C° 0.3 mm 1 m/S 554 mmHg 95%
    23:00 +11°C° 0 mm 1 m/S 554 mmHg 95%

    Morgen, 24 September, Dienstag

    Zeit Temperatur Niederschläge Wind Luftdruck Luftfeuchtigkeit
    00:00 +9°C° 0 mm 0 m/S 553 mmHg 95%
    01:00 +9°C° 0 mm 0 m/S 553 mmHg 95%
    02:00 +9°C° 0 mm 0 m/S 553 mmHg 94%
    03:00 +8°C° 0 mm 0 m/S 552 mmHg 92%
    04:00 +8°C° 0 mm 0 m/S 552 mmHg 91%
    05:00 +9°C° 0 mm 0 m/S 553 mmHg 89%
    06:00 +10°C° 0 mm 0 m/S 554 mmHg 87%
    07:00 +11°C° 0 mm 0 m/S 555 mmHg 85%
    08:00 +14°C° 0 mm 1 m/S 556 mmHg 75%
    09:00 +16°C° 0 mm 1 m/S 558 mmHg 65%
    10:00 +20°C° 0 mm 1 m/S 559 mmHg 55%
    11:00 +19°C° 0.2 mm 1 m/S 558 mmHg 59%
    12:00 +18°C° 0.2 mm 2 m/S 557 mmHg 62%
    13:00 +18°C° 0.2 mm 2 m/S 556 mmHg 66%
    14:00 +17°C° 0.6 mm 2 m/S 556 mmHg 71%
    15:00 +18°C° 0.6 mm 1 m/S 555 mmHg 76%
    16:00 +16°C° 0.6 mm 1 m/S 555 mmHg 81%
    17:00 +15°C° 1.5 mm 1 m/S 555 mmHg 86%
    18:00 +14°C° 1.5 mm 1 m/S 554 mmHg 92%
    19:00 +12°C° 1.5 mm 0 m/S 554 mmHg 97%
    20:00 +12°C° 1.5 mm 0 m/S 554 mmHg 97%
    21:00 +12°C° 1.5 mm 0 m/S 555 mmHg 97%
    22:00 +13°C° 1.5 mm 1 m/S 555 mmHg 97%
    23:00 +11°C° 0.7 mm 0 m/S 555 mmHg 96%

    übermorgen, 25 September, Mittwoch

    Zeit Temperatur Niederschläge Wind Luftdruck Luftfeuchtigkeit
    00:00 +11°C° 0.7 mm 0 m/S 554 mmHg 96%
    01:00 +11°C° 0.7 mm 0 m/S 554 mmHg 95%
    02:00 +11°C° 0.1 mm 0 m/S 554 mmHg 95%
    03:00 +11°C° 0.1 mm 0 m/S 554 mmHg 95%
    04:00 +11°C° 0.1 mm 0 m/S 554 mmHg 94%
    05:00 +11°C° 0 mm 0 m/S 554 mmHg 94%
    06:00 +11°C° 0 mm 0 m/S 555 mmHg 93%
    07:00 +11°C° 0 mm 0 m/S 556 mmHg 92%
    08:00 +13°C° 0.3 mm 1 m/S 556 mmHg 90%
    09:00 +14°C° 0.3 mm 1 m/S 557 mmHg 87%
    10:00 +15°C° 0.3 mm 1 m/S 557 mmHg 85%
    11:00 +15°C° 0.6 mm 1 m/S 557 mmHg 83%
    12:00 +16°C° 0.6 mm 1 m/S 556 mmHg 82%
    13:00 +16°C° 0.6 mm 1 m/S 555 mmHg 81%
    14:00 +16°C° 0.3 mm 2 m/S 555 mmHg 78%
    15:00 +17°C° 0.3 mm 2 m/S 555 mmHg 75%
    16:00 +17°C° 0.3 mm 2 m/S 555 mmHg 72%
    17:00 +15°C° 0.2 mm 1 m/S 554 mmHg 79%
    18:00 +14°C° 0.2 mm 1 m/S 553 mmHg 87%
    19:00 +12°C° 0.2 mm 1 m/S 553 mmHg 95%
    20:00 +12°C° 0.1 mm 1 m/S 553 mmHg 96%
    21:00 +12°C° 0.1 mm 1 m/S 554 mmHg 96%
    22:00 +12°C° 0.1 mm 1 m/S 554 mmHg 97%
    23:00 +11°C° 0 mm 1 m/S 554 mmHg 96%

    26 September, Donnerstag

    Zeit Temperatur Niederschläge Wind Luftdruck Luftfeuchtigkeit
    00:00 +11°C° 0 mm 1 m/S 554 mmHg 96%
    01:00 +11°C° 0 mm 1 m/S 554 mmHg 95%
    02:00 +11°C° 0 mm 1 m/S 553 mmHg 95%
    03:00 +11°C° 0 mm 1 m/S 553 mmHg 95%
    04:00 +9°C° 0 mm 0 m/S 553 mmHg 95%
    05:00 +10°C° 0 mm 0 m/S 553 mmHg 94%
    06:00 +10°C° 0 mm 0 m/S 554 mmHg 92%
    07:00 +11°C° 0 mm 0 m/S 555 mmHg 91%
    08:00 +13°C° 0.1 mm 1 m/S 555 mmHg 88%
    09:00 +14°C° 0.1 mm 1 m/S 556 mmHg 85%
    10:00 +15°C° 0.1 mm 2 m/S 556 mmHg 82%
    11:00 +16°C° 0.3 mm 2 m/S 556 mmHg 78%
    12:00 +17°C° 0.3 mm 2 m/S 556 mmHg 75%
    13:00 +17°C° 0.3 mm 3 m/S 556 mmHg 72%
    14:00 +17°C° 0.7 mm 2 m/S 555 mmHg 76%
    15:00 +16°C° 0.7 mm 2 m/S 555 mmHg 80%
    16:00 +15°C° 0.7 mm 2 m/S 554 mmHg 84%
    17:00 +14°C° 0.4 mm 2 m/S 554 mmHg 88%
    18:00 +13°C° 0.4 mm 1 m/S 553 mmHg 92%
    19:00 +12°C° 0.4 mm 1 m/S 553 mmHg 96%
    20:00 +12°C° 0 mm 1 m/S 553 mmHg 96%
    21:00 +11°C° 0 mm 1 m/S 553 mmHg 96%
    22:00 +11°C° 0 mm 1 m/S 554 mmHg 95%
    23:00 +9°C° 0 mm 0 m/S 553 mmHg 95%

    27 September, Freitag

    Zeit Temperatur Niederschläge Wind Luftdruck Luftfeuchtigkeit
    00:00 +9°C° 0 mm 0 m/S 553 mmHg 95%
    01:00 +9°C° 0 mm 0 m/S 552 mmHg 95%
    02:00 +9°C° 0 mm 0 m/S 552 mmHg 95%
    03:00 +10°C° 0 mm 1 m/S 552 mmHg 94%
    04:00 +9°C° 0 mm 1 m/S 552 mmHg 94%
    05:00 +10°C° 0 mm 1 m/S 553 mmHg 92%
    06:00 +11°C° 0 mm 1 m/S 554 mmHg 90%
    07:00 +12°C° 0 mm 1 m/S 555 mmHg 89%
    08:00 +14°C° 0.2 mm 1 m/S 556 mmHg 82%
    09:00 +16°C° 0.2 mm 2 m/S 557 mmHg 75%
    10:00 +18°C° 0.2 mm 2 m/S 558 mmHg 68%
    11:00 +18°C° 0.5 mm 3 m/S 558 mmHg 67%
    12:00 +18°C° 0.5 mm 3 m/S 557 mmHg 66%
    13:00 +19°C° 0.5 mm 3 m/S 557 mmHg 65%
    14:00 +18°C° 0.4 mm 3 m/S 556 mmHg 67%
    15:00 +18°C° 0.4 mm 2 m/S 555 mmHg 69%
    16:00 +17°C° 0.4 mm 2 m/S 555 mmHg 71%
    17:00 +15°C° 0.3 mm 1 m/S 554 mmHg 79%
    18:00 +13°C° 0.3 mm 1 m/S 553 mmHg 87%
    19:00 +10°C° 0.3 mm 0 m/S 553 mmHg 95%
    20:00 +10°C° 0 mm 0 m/S 553 mmHg 95%
    21:00 +10°C° 0 mm 0 m/S 553 mmHg 95%
    22:00 +9°C° 0 mm 0 m/S 553 mmHg 95%
    23:00 +9°C° 0 mm 0 m/S 553 mmHg 95%

    28 September, Samstag

    Zeit Temperatur Niederschläge Wind Luftdruck Luftfeuchtigkeit
    00:00 +9°C° 0 mm 0 m/S 552 mmHg 94%
    01:00 +9°C° 0 mm 0 m/S 552 mmHg 94%
    02:00 +8°C° 0 mm 0 m/S 552 mmHg 93%
    03:00 +8°C° 0 mm 0 m/S 552 mmHg 93%
    04:00 +8°C° 0 mm 0 m/S 551 mmHg 93%
    05:00 +9°C° 0 mm 0 m/S 552 mmHg 90%
    06:00 +10°C° 0 mm 0 m/S 553 mmHg 87%
    07:00 +11°C° 0 mm 0 m/S 554 mmHg 85%
    08:00 +15°C° 0.1 mm 1 m/S 556 mmHg 75%
    09:00 +18°C° 0.1 mm 1 m/S 557 mmHg 66%
    10:00 +21°C° 0.1 mm 1 m/S 558 mmHg 56%
    11:00 +21°C° 0.3 mm 1 m/S 558 mmHg 56%
    12:00 +20°C° 0.3 mm 2 m/S 557 mmHg 55%
    13:00 +21°C° 0.3 mm 2 m/S 557 mmHg 55%
    14:00 +19°C° 0.9 mm 2 m/S 556 mmHg 64%
    15:00 +18°C° 0.9 mm 2 m/S 555 mmHg 73%
    16:00 +18°C° 0.9 mm 1 m/S 554 mmHg 82%
    17:00 +15°C° 0.8 mm 1 m/S 553 mmHg 87%
    18:00 +14°C° 0.8 mm 1 m/S 553 mmHg 91%
    19:00 +12°C° 0.8 mm 0 m/S 553 mmHg 96%
    20:00 +11°C° 0.3 mm 0 m/S 553 mmHg 96%
    21:00 +11°C° 0.3 mm 0 m/S 553 mmHg 96%
    22:00 +11°C° 0.3 mm 0 m/S 553 mmHg 96%
    23:00 +10°C° 0.1 mm 0 m/S 553 mmHg 96%
    Mehr zeigen